Location: Ponte Samoggia
(44.5667°N, 11.1333°E)
Time: 00:00:32
(UTC+00:00)

Cosmos 1674 Rocket - Pass Details

Date: 26 May 2022
Orbit: 602 x 629 km, 82.5° (Epoch: 26 June)

Event Time Altitude Azimuth Distance (km) Brightness Sun altitude
Exits shadow 00:06:57 51° 274° (W) 767 3.9 -23.2°
Maximum altitude 00:07:06 51° 282° (WNW) 764 3.9 -23.2°
Drops below altitude 10° 00:11:21 10° 359° (N) 1,962 7.1 -23.0°
Sets 00:13:37 0° 4° (N) 2,868 8.4 -22.9°
